This demonstration page uses our WeatherBlox Daily Observations layout. Learn more.

Left ArrowRight Arrow

Hourly Observations for May 4, 2021

Temp ( °F °C ) Dew Point ( °F °C ) Humidity (%) Winds ( mph kmh ) Pressure ( in mb ) Visibility ( mi km ) Precip ( " mm )
12:15 am 00:15 Partly Cloudy 48 9.1 36 2.3 63 63 N 10 17 30.07 1018 10 16 N/A
12:35 am 00:35 Mostly Cloudy 48 9.1 36 2.1 62 62 N 10 17 30.07 1018 10 16 N/A
12:55 am 00:55 Mostly Cloudy 48 9 37 2.5 64 64 N 9 15 30.08 1019 10 16 N/A
1:15 am 01:15 Cloudy 48 9 35 1.8 61 61 NNE 9 15 30.08 1019 10 16 N/A
1:35 am 01:35 Partly Cloudy 47 8.6 36 2 64 64 N 9 15 30.09 1019 10 16 N/A
1:55 am 01:55 Partly Cloudy 47 8.4 36 2 64 64 N 10 17 30.09 1019 10 16 N/A
2:15 am 02:15 Partly Cloudy 46 8 35 1.9 66 66 N 9 15 30.09 1019 10 16 N/A
2:35 am 02:35 Partly Cloudy 46 7.8 35 1.6 65 65 NNE 9 15 30.09 1019 10 16 N/A
2:55 am 02:55 Partly Cloudy 47 8.2 34 1.1 61 61 NNE 10 17 30.09 1019 10 16 N/A
3:15 am 03:15 Partly Cloudy 46 7.9 34 1.3 63 63 NNE 8 13 30.09 1019 10 16 N/A
3:35 am 03:35 Mostly Cloudy 46 7.6 35 1.5 66 66 N 8 13 30.09 1019 10 16 N/A
3:55 am 03:55 Cloudy 45 7.1 35 1.9 70 70 N 7 11 30.10 1019 10 16 N/A
4:15 am 04:15 Cloudy 45 7.4 35 1.5 66 66 N 3 6 30.11 1020 10 16 N/A
4:35 am 04:35 Cloudy 45 7 35 1.5 68 68 NNW 3 6 30.12 1020 10 16 N/A
4:55 am 04:55 Cloudy 45 7 35 1.6 69 69 NNW 6 9 30.12 1020 10 16 N/A
5:15 am 05:15 Cloudy 45 7 34 1.2 67 67 NNW 7 11 30.12 1020 10 16 N/A
5:35 am 05:35 Cloudy 45 7 35 1.6 69 69 NNW 7 11 30.12 1020 10 16 N/A
5:55 am 05:55 Cloudy 45 7.1 35 1.6 68 68 NNW 5 7 30.12 1020 10 16 N/A
6:15 am 06:15 Cloudy 45 7 35 1.8 70 70 NNW 6 9 30.12 1020 10 16 N/A
6:35 am 06:35 Cloudy 44 6.9 36 2.2 72 72 NNW 7 11 30.13 1020 10 16 N/A
6:55 am 06:55 Cloudy 44 6.7 36 2.1 73 73 NNW 6 9 30.14 1021 10 16 N/A
7:15 am 07:15 Cloudy 45 7 36 2 71 71 N 8 13 30.14 1021 10 16 N/A
7:35 am 07:35 Cloudy 45 7.2 35 1.6 68 68 NNW 6 9 30.15 1021 10 16 N/A
7:55 am 07:55 Cloudy 46 7.5 34 1 64 64 N 7 11 30.16 1021 10 16 N/A
8:15 am 08:15 Cloudy 46 7.6 34 1.2 64 64 N 7 11 30.16 1021 10 16 N/A
8:35 am 08:35 Cloudy 46 7.9 35 1.5 64 64 NNW 7 11 30.16 1021 10 16 N/A
8:55 am 08:55 Mostly Cloudy 47 8.2 35 1.4 63 63 N 3 6 30.16 1021 10 16 N/A
9:15 am 09:15 Sunny 48 8.9 35 1.7 61 61 N 5 7 30.15 1021 10 16 N/A
9:35 am 09:35 Sunny 49 9.7 33 0.7 54 54 NNE 3 6 30.15 1021 10 16 N/A
9:55 am 09:55 Sunny 51 10.5 33 0.6 51 51 ENE 5 7 30.14 1021 10 16 N/A
10:15 am 10:15 Sunny 52 10.9 33 0.6 49 49 NE 3 6 30.13 1020 10 16 N/A
10:35 am 10:35 Sunny 52 11.1 33 0.6 49 49 NNE 3 6 30.13 1020 10 16 N/A
10:55 am 10:55 Sunny 53 11.6 33 0.8 48 48 NE 5 7 30.13 1020 10 16 N/A
11:15 am 11:15 Sunny 54 12 33 0.4 45 45 N N/A 30.13 1020 10 16 N/A
11:35 am 11:35 Sunny 55 12.8 34 1 45 45 NW 6 9 30.12 1020 10 16 N/A
11:55 am 11:55 Sunny 56 13.3 34 0.9 43 43 N 5 7 30.11 1020 10 16 N/A
12:15 pm 12:15 Sunny 55 13 32 0.2 42 42 N N/A 30.11 1020 10 16 N/A
12:35 pm 12:35 Sunny 56 13.6 33 0.4 41 41 WNW 6 9 30.10 1019 10 16 N/A
12:55 pm 12:55 Sunny 57 13.7 34 1.1 43 43 N N/A 30.10 1019 10 16 N/A
1:15 pm 13:15 Sunny 58 14.2 34 0.9 41 41 N 6 9 30.10 1019 10 16 N/A
1:35 pm 13:35 Partly Cloudy 57 14 32 0.1 39 39 N N/A 30.09 1019 10 16 N/A
1:55 pm 13:55 Sunny 59 14.8 32 0.2 37 37 N N/A 30.07 1018 10 16 N/A
2:15 pm 14:15 Sunny 60 15.7 35 1.7 39 39 SW 3 6 30.05 1018 10 16 N/A
2:35 pm 14:35 Partly Cloudy 60 15.5 33 0.8 37 37 E 8 13 30.05 1018 10 16 N/A
2:55 pm 14:55 Sunny 60 15.5 32 0.1 35 35 N N/A 30.04 1017 10 16 N/A
3:15 pm 15:15 Partly Cloudy 60 15.5 33 0.3 36 36 N N/A 30.04 1017 10 16 N/A
3:35 pm 15:35 Partly Cloudy 61 16 34 1 36 36 NE 5 7 30.03 1017 10 16 N/A
3:55 pm 15:55 Sunny 61 16.1 33 0.6 35 35 N 3 6 30.02 1017 10 16 N/A
4:15 pm 16:15 Sunny 61 16.1 32 undefined 34 34 ENE 6 9 30.01 1016 10 16 N/A
4:35 pm 16:35 Partly Cloudy 62 16.9 35 1.7 36 36 N N/A 30.00 1016 10 16 N/A
4:55 pm 16:55 Partly Cloudy 62 16.5 31 -0.6 31 31 N N/A 30.00 1016 10 16 N/A
5:15 pm 17:15 Sunny 63 17 31 -0.8 30 30 N N/A 29.99 1016 10 16 N/A
5:35 pm 17:35 Sunny 63 17 31 -0.5 31 31 W 5 7 29.98 1015 10 16 N/A
5:55 pm 17:55 Sunny 63 17 31 -0.7 30 30 WNW 5 7 29.98 1015 10 16 N/A
6:15 pm 18:15 Partly Cloudy 63 17.1 32 -0.2 31 31 N N/A 29.98 1015 10 16 N/A
6:35 pm 18:35 Partly Cloudy 62 16.7 31 -0.8 31 31 N N/A 29.99 1016 10 16 N/A
6:55 pm 18:55 Sunny 62 16.7 32 -0.2 32 32 SE 6 9 29.99 1016 10 16 N/A
7:15 pm 19:15 Sunny 61 16.3 29 -1.6 30 30 N N/A 30.00 1016 10 16 N/A
7:35 pm 19:35 Sunny 61 16.1 32 -0.1 33 33 ESE 5 7 30.00 1016 10 16 N/A
7:55 pm 19:55 Sunny 61 16 33 0.8 36 36 ESE 7 11 30.00 1016 10 16 N/A
8:15 pm 20:15 Sunny 58 14.5 37 2.6 45 45 ESE 9 15 30.02 1017 10 16 N/A
8:35 pm 20:35 Sunny 56 13.5 38 3.6 51 51 ESE 8 13 30.03 1017 10 16 N/A
8:55 pm 20:55 Clear 55 12.6 39 3.9 56 56 ESE 8 13 30.05 1018 10 16 N/A
9:15 pm 21:15 Clear 54 12.2 39 4.1 58 58 SE 7 11 30.05 1018 10 16 N/A
9:35 pm 21:35 Clear 53 11.5 38 3.5 58 58 SE 8 13 30.07 1018 10 16 N/A
9:55 pm 21:55 Clear 52 11 38 3.5 60 60 SE 8 13 30.08 1019 10 16 N/A
10:15 pm 22:15 Clear 51 10.3 38 3.4 63 63 SE 8 13 30.09 1019 10 16 N/A
10:35 pm 22:35 Clear 51 10.5 37 3 60 60 SSE 8 13 30.09 1019 10 16 N/A
10:55 pm 22:55 Clear 50 9.8 38 3.1 63 63 SSE 6 9 30.09 1019 10 16 N/A
11:15 pm 23:15 Clear 48 9.1 38 3.2 67 67 SSE 5 7 30.10 1019 10 16 N/A
11:35 pm 23:35 Clear 48 9.1 37 3 66 66 SSE 7 11 30.10 1019 10 16 N/A
11:55 pm 23:55 Clear 49 9.6 38 3.1 64 64 SSE 7 11 30.10 1019 10 16 N/A

Powered by AerisWeather